Tracking 29892 objects as of 21-Nov-2024
HD Live streaming from Space Station
objects crossing your sky now

STARLINK-2098

Track STARLINK-2098 now!
10-day predictions
STARLINK-2098 is classified as:


NORAD ID: 47378
Int'l Code: 2021-005AF
Perigee: 553.2 km
Apogee: 555.4 km
Inclination: 53.1 °
Period: 95.6 minutes
Semi major axis: 6925 km
RCS: Unknown
Launch date: January 20, 2021
Source: United States (US)
Launch site: AIR FORCE EASTERN TEST RANGE (AFETR)
Your satellite tracking list
Your tracking list is empty




NASA's NSSDC Master Catalog

Two Line Element Set (TLE):
1 47378U 21005AF  24325.05411559  .00018507  00000-0  12573-2 0  9994
2 47378  53.0541 352.3383 0001566 100.3587 259.7578 15.06423316212063
Source of the keplerian elements: AFSPC